Aérodrome :
LOGIN :

S'inscrire | Disclaimer

   EN    FR    IT 

 










Légende :    VFR   VFR Marginal   IFR   IFR Intensif   IFR Très Intensif
Visi : 
Plafond : 
>= 8 km
>= 3000ft
5 à 8 km
1000 à 3000 ft
1500m à 5 km
500 à 1000 ft
800 à 1500m
200 à 500 ft
< 800m
< 200 ft
Symboles :   Orages  Brouillard  Fortes neiges  Fortes précipitations  Vent > 20 kt
SIGMETs :   Divers  Orages  Givrage  Turbulence  Onde Orograph.  Cendres Volcan.







- Altitude de l'aérodrome : 288 ft
- Code IATA : BZZ


EGVN - RAF Brize Norton

METARs EXPIRÉS :
  • 241350Z 23009KT 9999 FEW030 22/12 Q1013 BLU NOSIG
  • 241250Z 22010KT 9999 SCT028 21/13 Q1013 NOSIG
  • 241226Z 24009G20KT 9999 SCT028 21/12 Q1013 BLU NOSIG
  • 241150Z 24010KT 9999 SCT024 20/12 Q1013 BECMG SCT025

TAF TAF EGVN
Valide du 24 à 15h jusqu'au 25 à 15h UTC


241347Z 2415/2515 25008KT 9999 SCT025
PROB40
TEMPO 2415/2504 SCT024
PROB40 2504/2510 BKN012
TEMPO 2510/2512 SCT020
Pas de NOTAMs connus pour ce terrain.



MET'MAP, la Météo Aéronautique d'un coup d'oeil ! - Copyright ORBIFLY Décembre 2007 - Disclaimer

ORBIFLY MET'MAP TEAM :

Programmation & Développement : Alexandra Zaïnal
Conception & Développement : Baudouin d'Aumeries
Co-Programmation & Développement : Marc-Olivier Méhu
Soutien technique & logistique : Manuel Goepfert

Contact : metmap@orbifly.com




SOURCES & CREDITS :

   NOAA